TOPSWRTT 000
TTAA00 KICT 281712

Wichita AWIPS Roundup
National Weather Service Wichita KS
1200 PM CDT SAT MAR 28 2015

....Central Kansas....
  
CITY           SKY/WX    TMP DP  RH WIND       PRES   REMARKS
RUSSELL        SUNNY     58  37  45 NE10      30.02F                  
SALINA         SUNNY     56  35  45 E7        30.06S                  
GREAT BEND     SUNNY     61  37  41 E10       30.03S                  
ELLSWORTH      SUNNY     61  37  41 NE12      30.03F                  
MCPHERSON      SUNNY     57  39  51 NE7       30.04S                  
HAYS           SUNNY     59  36  41 E10       30.04S                  

....South Central Kansas....
  
CITY           SKY/WX    TMP DP  RH WIND       PRES   REMARKS
HUTCHINSON     SUNNY     61  37  41 NE9       30.04S                  
NEWTON         SUNNY     55  36  47 E7        30.07R                  
KINGMAN        SUNNY     61  45  55 NE5       30.03S                  
WICHITA (ICT)  MOSUNNY   59  39  47 VRB5      30.04R                  
JABARA ARPT    SUNNY     59  39  47 VRB5      30.04R                  
MCCONNELL AFB  SUNNY     60  41  49 VRB5      30.04R                  
BENTON         FAIR      56  39  51 S7        30.05R                  
EL DORADO      FAIR      61  37  41 SE6       30.04S                  
HARPER           N/A     63  45  51 CALM      30.04S                  
WELLINGTON     SUNNY     64  39  39 E3        30.04S                  
WINFIELD       SUNNY     62  43  49 CALM      30.04S                  
 
....Southeast Kansas....
  
CITY           SKY/WX    TMP DP  RH WIND       PRES   REMARKS
EUREKA         SUNNY     57  39  51 E7        30.07S                  
CHANUTE        SUNNY     54  36  50 SE12G18   30.10S                  
PARSONS        SUNNY     57  39  51 VRB6      30.10S                  
COFFEYVILLE    SUNNY     58  39  49 E7        30.08S                  
INDEPENDENCE   SUNNY     57  39  51 CALM      30.07S                  
FORT SCOTT     MOSUNNY   54  32  43 SE10      30.13S                  
PITTSBURG      SUNNY     53  35  52 SE10      30.12S                  

....Western Kansas....
  
CITY           SKY/WX    TMP DP  RH WIND       PRES   REMARKS
GOODLAND       SUNNY     69  32  25 VRB3      30.03S                  
HILL CITY      SUNNY     59  35  40 E9        30.04S                  
LIBERAL        SUNNY     72  41  33 N9        30.04S                  
GARDEN CITY    SUNNY     67  37  33 E9        30.02F                  
DODGE CITY     MOSUNNY   68  38  33 NE12      30.03S                  
PRATT          SUNNY     63  36  36 E10       30.03S                  
MEDICINE LODGE   N/A     68  40  35 NE10      30.01R                  

....Northeast Kansas....
  
CITY           SKY/WX    TMP DP  RH WIND       PRES   REMARKS
CONCORDIA      SUNNY     52  32  46 E9        30.07S                  
TOPEKA         SUNNY     50  28  42 E13G22    30.14F                  
MANHATTAN      SUNNY     53  32  44 SE10      30.10S                  
LAWRENCE       SUNNY     49  29  46 SE16G22   30.16S                  
OLATHE         CLOUDY    46  30  53 E15       30.16S                  
EMPORIA        SUNNY     53  32  44 E13G18    30.08S                  

....Oklahoma....
  
CITY           SKY/WX    TMP DP  RH WIND       PRES   REMARKS
GAGE           SUNNY     78  34  20 NE5       30.00F                  
PONCA CITY     SUNNY     64  41  42 VRB6      30.03S                  
BARTLESVILLE   SUNNY     64  40  41 S8        30.06F                  
TULSA          MOSUNNY   59  38  45 S16G25    30.06F                  
OKLAHOMA CITY  MOSUNNY   63  43  48 S12G17    30.04F                  

Note: "fair" indicates few or no clouds below 12,000 feet with no
significant weather and/or obstructions to visibility.

USA.gov is the U.S. government's official web portal to all federal, state and local government web resources and services.